Notices

What's New in latest Release from April 7th, 2021:

- Updated Glossary, including Speed of Maximum Gust, and Total Hourly Precipitation

- Updated national and regional climate services offices contacts and prices information

- Addition of station inventory lists for 1981-2010, 1971-2000, and 1961-1990 Normals.

If you haven't already, please take our survey and provide feedback about our website: https://eccc.sondage-survey.ca/f/LanguageSelection.aspx?s=442ca660-fcf1-47c0-95a9-59707d6fd709

Hourly Data Report for April 13, 2021

CLYDE RIVER A
NUNAVUT
Current Station Operator: NAVCAN

70°29'09.000" N
68°31'01.000" W
26.50 m
2400804
71090
YCY

Download Data

Hourly Data (April 2021)
Hourly Data Report for April 13, 2021
TIME
LST
Temp Definition
°C
Dew Point Definition
°C
Rel Hum Definition
%
Precip. Amount Definition
mm

Wind Dir Definition
10's deg

Wind Spd Definition
km/h
Visibility Definition
km
Stn Press Definition
kPa
Hmdx Definition


Wind Chill Definition


Weather Definition


00:00 -12.7 -13.9 91 0.0 31 50 1.2 102.11   -25 Snow,Blowing Snow
01:00 -13.2 -14.4 91 0.0 31 45 1.2 102.17   -26 Snow,Blowing Snow
02:00 -13.5 -14.8 90 0.0 31 43 2.0 102.22   -26 Snow,Blowing Snow
03:00 -14.0 -15.3 90 0.0 32 48 1.2 102.27   -27 Snow,Blowing Snow
04:00 -14.4 -15.7 90 0.0 31 41 2.0 102.35   -27 Snow,Blowing Snow
05:00 -14.6 -16.0 89 0.0 32 41 1.6 102.39   -27 Snow,Blowing Snow
06:00 -14.8 -16.4 88 0.0 32 37 2.0 102.48   -27 Snow
07:00 -15.2 -16.9 87 0.0 32 35 2.0 102.53   -27 Snow
08:00 -15.3 -17.2 85 0.0 32 41 2.8 102.53   -28 Snow,Blowing Snow
09:00 -15.5 -17.6 84 0.0 32 30 6.4 102.60   -27 Haze
10:00 -15.4 -17.8 82 0.0 31 28 11.3 102.63   -26 LegendNANA
11:00 -15.3 -17.7 82 0.0 32 35 9.7 102.62   -27 Haze
12:00 -15.0 -17.6 81 0.0 31 30 11.3 102.67   -26 LegendNANA
13:00 -15.1 -17.5 82 0.0 31 35 4.8 102.67   -27 Snow
14:00 -14.6 -17.5 79 0.0 31 24 11.3 102.69   -24 LegendNANA
15:00 -14.6 -17.3 80 0.0 31 30 16.1 102.69   -26 LegendNANA
16:00 -15.5 -18.2 80 0.0 32 34 16.1 102.73   -27 LegendNANA
17:00 -16.1 -19.3 77 0.0 32 24 16.1 102.76   -26 LegendNANA
18:00 -15.9 -18.9 78 0.0 28 13 16.1 102.78   -23 LegendNANA
19:00 -16.5 -19.5 78 0.0 34 9 16.1 102.78   -23 LegendNANA
20:00 -17.7 -20.1 82 0.0 35 9 16.1 102.79   -24 LegendNANA
21:00 -19.2 -22.0 79 0.0 36 18 16.1 102.77   -29 LegendNANA
22:00 -21.0 -23.2 83 0.0 28 8 16.1 102.79   -27 LegendNANA
23:00 -21.9 -23.9 84 0.0 32 22 16.1 102.78   -33 LegendNANA

Notes on Data Quality.

Legend

  • E = Estimated
  • M = Missing
  • NA = Not Available*
  • [empty] = Indicates an unobserved value
Date modified: